Location: Tallgrass Prairie National Preserve
(38.4367°N, 96.5727°W)
Time: 01:12:44
(UTC-06:00)

ISS - Visible Passes

Search period start: 16 November 2025 00:00
Search period end: 26 November 2025 00:00
Orbit: 415 x 420 km, 51.6° (Epoch: 15 November)

Date Brightness Start Highest point End Pass type
(mag) Time Alt. Az. Time Alt. Az. Time Alt. Az.
16 Nov -2.1 18:09:33 10° W 18:12:29 28° NNW 18:15:04 12° NNE visible
17 Nov -1.1 19:00:21 10° NW 19:01:42 12° NNW 19:01:49 12° NNW visible
18 Nov -1.3 18:11:15 10° WNW 18:13:17 15° NNW 18:15:19 10° NNE visible
20 Nov -1.1 18:13:51 10° NNW 18:14:09 10° N 18:14:27 10° N visible
25 Nov -1.0 19:02:29 10° NNW 19:02:50 12° NNW 19:02:50 12° NNW visible
